Terminal Aerodrome Forecast
Issued by NWS Brownsville, TX

Home | Current Version | Previous Version | Text Only | Print | Product List | Glossary On
Versions: 1 2 3 4 5 6 7 8 9 10 11 12 13 14 15 16 17 18 19 20 21
000
FTUS44 KBRO 230500
TAFHRL
TAF
KHRL 230527Z 2306/2406 04005KT P6SM FEW030 FEW200
     FM231800 04010KT P6SM SCT030
     FM232300 03006KT P6SM FEW050=

USA.gov is the U.S. government's official web portal to all federal, state and local government web resources and services.